Tracking 31027 objects as of 19-Jul-2025
HD Live streaming from Space Station
objects crossing your sky now

SCOUT G-1 DEB

Track SCOUT G-1 DEB now!
10-day predictions


NORAD ID: 44571
Int'l Code: 1985-066K
Perigee: 990.4 km
Apogee: 1,227.0 km
Inclination: 90.2 °
Period: 107.3 minutes
Semi major axis: 7479 km
RCS: Unknown
Launch date: August 3, 1985
Source: United States (US)
Launch site: AIR FORCE WESTERN TEST RANGE (AFWTR)

Note: This is SATELLITE DEBRIS
Your satellite tracking list
IRIDIUM 106
Track 1 satellite(s)




NASA's NSSDC Master Catalog

Two Line Element Set (TLE):
1 44571U 85066K   25196.92354371  .00000886  00000-0  14488-2 0  9992
2 44571  90.1699  83.2733 0158166  80.7428 281.1568 13.42086570613501
Source of the keplerian elements: AFSPC